TAP11D LPPR-LPMA

Flight info

Callsign TAP11D
Flight time N/A
Altitude 39000
Route ASMOV DCT DIRMA DCT VABEM DCT LIDRO
Aircraft A339/H-SADE1E2E3GHIJ3J5M1P2RWXY/LB2D1

Departure

Time 2026-05-05 18:08
Airport Francisco de Sá Carneiro Airport (LPPR)

Arrival

Time N/A
Airport Cristiano Ronaldo International Airport (LPMA)
Time Latitude Longitude Altitude Speed Heading
2026-05-05 17:42 41.23729 -8.67283 243 ft 0 kts 69°
2026-05-05 17:59 41.23726 -8.67294 244 ft 2 kts 69°
2026-05-05 18:00 41.23721 -8.67313 244 ft 2 kts 69°
2026-05-05 18:00 41.23715 -8.67332 244 ft 2 kts 74°
2026-05-05 18:00 41.23713 -8.67351 244 ft 2 kts 90°
2026-05-05 18:00 41.23714 -8.67370 244 ft 2 kts 102°
2026-05-05 18:01 41.23718 -8.67389 244 ft 2 kts 115°
2026-05-05 18:01 41.23725 -8.67404 244 ft 0 kts 126°
2026-05-05 18:01 41.23727 -8.67409 244 ft 0 kts 127°
2026-05-05 18:03 41.23721 -8.67399 244 ft 3 kts 129°
2026-05-05 18:04 41.23691 -8.67364 244 ft 7 kts 147°
2026-05-05 18:04 41.23635 -8.67338 244 ft 9 kts 176°
2026-05-05 18:04 41.23571 -8.67356 244 ft 8 kts 208°
2026-05-05 18:04 41.23510 -8.67383 244 ft 9 kts 186°
2026-05-05 18:05 41.23444 -8.67371 244 ft 10 kts 172°
2026-05-05 18:05 41.23367 -8.67379 244 ft 11 kts 210°
2026-05-05 18:05 41.23327 -8.67466 244 ft 11 kts 253°
2026-05-05 18:05 41.23309 -8.67561 244 ft 6 kts 257°
2026-05-05 18:06 41.23308 -8.67565 244 ft 0 kts 260°
2026-05-05 18:06 41.23301 -8.67634 244 ft 13 kts 262°
2026-05-05 18:06 41.23312 -8.67715 244 ft 4 kts 324°
2026-05-05 18:07 41.23347 -8.67740 244 ft 8 kts 337°
2026-05-05 18:07 41.23399 -8.67758 244 ft 0 kts 349°
2026-05-05 18:07 41.23425 -8.67765 244 ft 22 kts 349°
2026-05-05 18:08 41.23811 -8.67864 244 ft 88 kts 348°
2026-05-05 18:08 41.24607 -8.68073 244 ft 143 kts 348°
2026-05-05 18:08 41.25708 -8.68345 447 ft 170 kts 347°
2026-05-05 18:08 41.26864 -8.68671 1062 ft 171 kts 343°
2026-05-05 18:09 41.27969 -8.69011 1919 ft 160 kts 347°
2026-05-05 18:09 41.29051 -8.69305 2488 ft 166 kts 347°
2026-05-05 18:09 41.30227 -8.69618 2881 ft 182 kts 347°
2026-05-05 18:09 41.31535 -8.69969 3273 ft 200 kts 347°
2026-05-05 18:10 41.32944 -8.70347 3663 ft 218 kts 348°
2026-05-05 18:10 41.34463 -8.70869 4065 ft 236 kts 333°
2026-05-05 18:10 41.35666 -8.72443 4509 ft 256 kts 296°
2026-05-05 18:10 41.35902 -8.74783 5246 ft 268 kts 261°
2026-05-05 18:11 41.35041 -8.76999 6021 ft 278 kts 227°
2026-05-05 18:11 41.33505 -8.78581 6771 ft 283 kts 218°
2026-05-05 18:11 41.31917 -8.80153 7487 ft 287 kts 220°
2026-05-05 18:11 41.30353 -8.81754 8216 ft 290 kts 220°
2026-05-05 18:12 41.28770 -8.83406 8941 ft 292 kts 221°
2026-05-05 18:12 41.27176 -8.85086 9682 ft 295 kts 221°
2026-05-05 18:12 41.25567 -8.86790 10414 ft 298 kts 221°
2026-05-05 18:12 41.23913 -8.88547 10841 ft 313 kts 221°
2026-05-05 18:13 41.22183 -8.90389 11142 ft 330 kts 221°
2026-05-05 18:13 41.20354 -8.92335 11660 ft 340 kts 222°
2026-05-05 18:13 41.18504 -8.94297 12384 ft 344 kts 222°
2026-05-05 18:13 41.16629 -8.96284 13088 ft 347 kts 223°
2026-05-05 18:14 41.14723 -8.98306 13762 ft 351 kts 223°
2026-05-05 18:14 41.12835 -9.00311 14438 ft 354 kts 223°
2026-05-05 18:14 41.10893 -9.02370 15142 ft 357 kts 224°
2026-05-05 18:14 41.08954 -9.04426 15878 ft 360 kts 224°
2026-05-05 18:15 41.06985 -9.06513 16581 ft 363 kts 224°
2026-05-05 18:15 41.05033 -9.08579 17260 ft 365 kts 224°
2026-05-05 18:15 41.03053 -9.10674 17934 ft 368 kts 224°
2026-05-05 18:15 41.01032 -9.12811 18618 ft 370 kts 224°
2026-05-05 18:16 40.99049 -9.14910 19296 ft 372 kts 224°
2026-05-05 18:16 40.97017 -9.17058 19983 ft 373 kts 224°
2026-05-05 18:16 40.94981 -9.19206 20635 ft 375 kts 224°
2026-05-05 18:16 40.92957 -9.21339 21244 ft 378 kts 224°
2026-05-05 18:17 40.90888 -9.23517 21844 ft 380 kts 224°
2026-05-05 18:17 40.88819 -9.25695 22422 ft 383 kts 224°
2026-05-05 18:17 40.86753 -9.27867 22979 ft 385 kts 224°
2026-05-05 18:17 40.84662 -9.30065 23529 ft 387 kts 224°